Location: Unspecified
(40.7945°N, 0.0000°E)
Time: 06:44:24
(UTC+00:00)

Explorer 7 - Pass Details

Date: 21 January 2021
Orbit: 484 x 677 km, 50.3° (Epoch: 28 February)

Event Time Altitude Azimuth Distance (km) Brightness Sun altitude
Rises 05:52:44 0° 243° (WSW) 2,564 - -16.2°
Reaches altitude 10° 05:54:53 10° 246° (WSW) 1,702 - -15.8°
Exits shadow 05:56:40 26° 253° (WSW) 1,020 7.7 -15.5°
Maximum altitude 05:58:42 66° 329° (NNW) 568 6.7 -15.1°
Drops below altitude 10° 06:02:45 10° 53° (NE) 1,800 10.0 -14.4°
Sets 06:05:04 0° 56° (NE) 2,729 11.0 -14.0°
